Regional Weather Roundup
Issued by NWS

Home | Current Version | Previous Version | Text Only | Print | Product List | Glossary Off
Versions: 1 2 3 4 5 6 7 8 9 10 11 12 13 14 15 16 17 18 19 20 21 22 23 24 25 26 27 28 29 30 31 32 33 34 35 36 37 38 39 40 41 42 43 44 45 46 47 48 49 50

000
ASUS43 KLOT 280803
RWRIL

ILLINOIS REGIONAL WEATHER ROUNDUP
NATIONAL WEATHER SERVICE CHICAGO/ROMEOVILLE IL
300 AM CDT THU APR 28 2016

NOTE: "FAIR" INDICATES FEW OR NO CLOUDS BELOW 12,000 FEET WITH NO
SIGNIFICANT WEATHER AND/OR OBSTRUCTIONS TO VISIBILITY.

* THESE STATIONS ARE NOT UNDER NWS QUALITY CONTROL. THEY ALSO MAY NOT
  REPORT WEATHER SUCH AS PRECIPITATION OR FOG.

ILZ001-002-007-009-015-016-024-280900-
NORTHWEST ILLINOIS

CITY           SKY/WX    TMP DP  RH WIND       PRES   REMARKS
MOLINE         MOCLDY    50  47  89 E9        29.68R
STERLING*      MOCLDY    46  46 100 E21       29.73F
$$

ILZ003-004-008-010-011-017-018-280900-
NORTH CENTRAL ILLINOIS

CITY           SKY/WX    TMP DP  RH WIND       PRES   REMARKS
ROCKFORD       TSTM      46  43  89 E10       29.83R FOG
FREEPORT*      CLOUDY    44  42  94 E14       29.79F
DE KALB*       HVY RAIN  45  43  93 SE5       29.86R
$$

ILZ005-006-012>014-019>023-280900-
NORTHEAST ILLINOIS

CITY           SKY/WX    TMP DP  RH WIND       PRES   REMARKS
CHICAGO-OHARE  LGT RAIN  44  42  93 NE14      29.82S FOG
CHICAGO-MIDWAY CLOUDY    46  42  86 NE9       29.82R
AURORA         LGT RAIN  46  43  89 SW12      29.88R FOG
LANSING*       LGT RAIN  46  42  85 SE5       29.81R
WAUKEGAN       RAIN      43  41  93 E15       29.85F
DUPAGE AIRPORT CLOUDY    44  40  85 NE14      29.80F
WHEELING       LGT RAIN  43  41  93 NE13      29.85S FOG
NORTHERLY ISL    N/A     45  42  89 NE13        N/A
NORTHERLY ISL    N/A     45  42  89 NE13        N/A
$$

LMZ740>746-280900-
SOUTHERN LAKE MICHIGAN

STATION/POSITION SKY/WX   TEMP    WIND        PRES    VSBY  WAVE
                          AIR SEA DIR/SP/G                  HT/PER
                          (F)     (DEG/KT/KT) (MB)    (MI)  (FT/S)
SOUTHERN BUOY              44 40   90/ 12/ 14 1011.4          3/ 7
HARRISON CRIB              45      70/ 16/ 17   N/A
BURNHAM HARBOR             44      20/ 11/ 13   N/A
CALUMET HARBOR             46      60/  8/  9 1008.8F
BURNS HARBOR               48     110/ 10/ 24 1009.5S
MICHIGAN CITY              49      90/ 13/ 16   N/A
ST. JOSEPH                 50 46  120/ 16/ 19   N/A           3/ 5
$$

ILZ025>027-034>036-040-047-049-050-058-095>099-280900-
WEST-CENTRAL ILLINOIS

CITY           SKY/WX    TMP DP  RH WIND       PRES   REMARKS
QUINCY         FOG       49  49 100 S5        29.70S VSB 1/4
MACOMB*        CLEAR     50  49  98 SW3       29.74R FOG
$$

ILZ028>032-037-038-041>044-048-051>054-059>061-280900-
CENTRAL ILLINOIS

CITY           SKY/WX    TMP DP  RH WIND       PRES   REMARKS
BLOOMINGTON    LGT RAIN  53  53 100 NE12      29.73F
DECATUR        MOCLDY    58  55  90 N8        29.73F
PEORIA         CLOUDY    53  51  93 E8        29.69R
SPRINGFIELD    CLOUDY    56  53  90 E8        29.72S
TAYLORVILLE    NOT AVBL
$$

ILZ033-039-045-046-055>057-062-063-280900-
EAST-CENTRAL ILLINOIS

CITY           SKY/WX    TMP DP  RH WIND       PRES   REMARKS
CHAMPAIGN      LGT RAIN  56  53  90 NE10      29.70F
MATTOON        TSTM      56  53  90 E5        29.73S
$$

ILZ079-100>102-280900-
SOUTHWEST ILLINOIS

CITY           SKY/WX    TMP DP  RH WIND       PRES   REMARKS
ALTON          CLEAR     57  53  86 CALM      29.73S
BELLEVILLE     CLEAR     60  57  91 W6        29.72R
CAHOKIA*       CLEAR     60  52  74 NW8       29.73S
SPARTA*        MOCLDY    62  55  78 NW6       29.75R
$$

ILZ064>066-069>071-074>076-080>082-084>086-088>090-092>094-280900-
SOUTH-CENTRAL ILLINOIS

CITY           SKY/WX    TMP DP  RH WIND       PRES   REMARKS
CARBONDALE     MOCLDY    58  55  90 SW7       29.74R
MT. VERNON     CLOUDY    64  57  77 W7        29.73R
SALEM*         PTCLDY    65  63  93 W6        29.71R
METROPOLIS*    CLOUDY    65  65 100 CALM      29.76R
$$

ILZ067-068-072-073-078-083-087-091-280900-
SOUTHEAST ILLINOIS

CITY           SKY/WX    TMP DP  RH WIND       PRES   REMARKS
LAWRENCEVILLE  CLOUDY    63  61  93 SE7       29.72F
FLORA*         CLOUDY    64  62  94 SW6       29.71R
HARRISBURG*    CLOUDY    64  56  77 SW12      29.71S
ROBINSON*      CLOUDY    62  61  97 SE3       29.73S
$$

ABBREVIATIONS USED IN REMARKS
   TC - TEMPERATURE IN CELSIUS
  WCI - WIND CHILL INDEX
   HX - HEAT INDEX
  VSB - VISIBILITY
$$





USA.gov is the U.S. government's official web portal to all federal, state and local government web resources and services.